Theta_e
336 336 335 336 344 344 341 343 340 335 331 334 332 335 341 340 341 339 342 339 340 332 335 331 335 336 326 327 326 325 325 323
336 335 334 335 343 340 340 339 342 339 335 336 336 336 339 337 339 339 338 333 335 334 332 333 331 330 328 325 323 327 324 324
338 337 337 336 338 339 339 341 343 345 343 343 340 336 336 339 335 334 336 333 335 334 333 334 333 329 326 325 324 324 322 320
332 329 330 330 332 337 340 342 346 345 342 338 336 334 337 336 334 334 334 334 337 334 331 331 330 328 327 325 324 322 319 318
327 326 326 330 329 333 336 338 341 340 336 333 331 330 330 329 328 330 331 331 330 332 328 328 330 330 328 327 323 320 319 318
330 326 326 330 329 330 333 335 334 334 334 329 328 330 332 331 326 326 327 326 326 327 325 327 329 327 325 322 321 318 316 315
331 328 329 329 331 330 329 328 327 328 330 332 333 330 327 327 326 325 326 327 328 328 326 326 327 323 323 320 318 317 314 312
330 331 332 330 329 328 326 327 331 333 334 331 328 328 328 328 329 327 328 329 329 325 324 326 325 321 320 318 317 316 314 312
329 330 330 331 328 327 330 330 325 327 325 323 323 323 324 326 330 330 332 330 328 327 325 322 322 318 317 317 315 313 311 313
325 326 326 327 327 329 328 327 325 324 324 325 325 325 327 330 332 330 330 329 328 325 324 321 321 317 317 317 315 311 312 313
323 324 324 325 325 326 326 324 324 325 326 328 328 330 329 329 329 326 325 326 327 325 323 321 320 319 314 316 315 314 310 312
322 319 318 320 320 320 319 319 318 319 320 321 319 320 317 321 323 329 325 326 325 325 321 320 318 317 316 316 315 314 313 308
314 314 313 315 316 316 317 317 316 317 320 319 318 318 319 323 323 324 324 324 325 321 320 319 318 318 317 316 316 315 313 310
309 310 311 312 316 317 316 316 317 319 319 320 322 321 320 318 317 317 316 319 321 319 318 320 320 318 317 317 317 316 314 313
308 309 310 312 312 315 316 314 312 314 315 319 319 320 321 318 318 316 315 315 317 318 320 321 319 317 318 317 316 315 314 313
308 310 311 312 315 315 313 313 313 315 315 315 316 319 316 315 315 316 314 314 313 318 317 319 319 318 317 317 316 316 316 314
310 311 311 311 312 311 310 311 312 314 315 315 316 317 317 315 316 317 315 317 315 317 318 317 317 316 316 317 315 315 315 313
309 310 311 312 311 310 314 315 313 313 313 314 313 314 314 314 314 313 314 315 315 315 315 316 316 317 317 317 316 316 314 312
309 309 310 311 313 311 313 312 311 311 311 312 311 312 311 312 312 312 313 316 316 316 316 314 315 316 317 316 314 313 313 312
309 309 311 310 310 310 309 309 309 310 311 311 312 312 311 315 315 315 316 315 315 315 316 314 315 313 315 314 312 312 310 310
Wind_Speed
17 17 16 17 21 3 20 15 15 18 13 9 7 6 4 3 5 4 4 4 4 5 2 4 2 2 7 9 9 7 8 8
17 17 18 17 23 21 17 15 10 10 10 8 7 6 4 4 5 5 5 5 5 6 5 5 5 4 7 8 6 6 7 8
18 14 13 10 23 21 17 12 13 6 7 6 9 10 7 4 8 8 5 5 5 5 5 6 4 6 9 7 7 6 8 9
23 36 33 33 31 25 21 19 15 12 10 13 9 8 7 8 7 6 5 4 4 4 6 6 6 7 6 7 6 7 9 10
26 24 21 27 22 22 15 11 12 10 10 9 7 6 8 6 5 6 11 7 8 6 4 7 5 5 6 5 6 8 8 9
16 28 26 12 16 9 1 6 6 8 3 8 8 4 5 5 5 4 6 6 5 4 4 4 7 6 6 6 6 8 8 8
18 14 9 13 12 8 8 10 9 11 9 4 6 9 6 4 4 4 5 4 5 5 4 5 5 5 6 6 6 7 8 8
19 19 16 15 13 11 10 7 5 3 2 5 4 4 2 2 2 2 4 2 0 3 4 4 6 5 5 6 6 5 7 7
17 14 13 13 12 11 9 8 6 6 5 4 3 3 3 1 4 8 2 1 3 3 4 6 5 5 6 5 5 7 4 5
17 15 12 11 11 10 10 10 9 7 5 3 2 2 3 4 4 5 2 2 1 4 2 1 3 4 5 3 4 6 5 5
16 15 13 13 11 8 9 9 8 6 4 2 2 3 5 3 4 4 3 4 4 2 4 1 2 3 4 3 4 6 5 6
17 15 15 15 11 11 9 8 5 4 7 7 8 4 5 4 6 4 2 3 6 6 5 2 1 2 5 4 3 5 2 5
16 14 13 10 10 9 7 6 6 5 4 3 2 5 4 4 5 6 5 6 6 8 4 2 3 2 4 4 5 4 5 3
13 10 8 7 4 2 3 3 2 4 5 7 5 7 8 7 7 7 5 4 3 4 3 3 1 3 5 4 5 4 5 4
8 7 7 6 5 6 7 7 7 7 7 5 6 6 6 9 8 4 6 5 3 5 4 2 2 5 4 5 4 4 5 2
6 4 2 3 5 2 4 4 5 6 7 6 5 6 5 6 4 3 5 5 6 4 5 3 5 5 5 4 3 3 4 3
8 8 8 6 4 5 6 5 5 6 7 6 7 5 6 6 7 5 7 5 6 5 5 4 6 6 4 4 3 4 3 3
10 6 3 3 4 5 4 9 10 10 10 8 7 8 6 7 6 6 6 6 6 8 8 7 5 4 4 2 2 3 3 4
5 5 5 6 7 9 9 10 11 9 8 9 8 8 9 10 6 9 9 7 7 7 8 9 6 4 2 2 4 5 5 4
4 4 4 7 14 14 13 9 9 9 9 9 11 12 6 6 8 7 7 6 7 6 7 7 5 3 3 2 3 4 6 6
Wind_Direction
185 181 184 165 152 81 136 153 141 140 142 166 159 159 139 157 86 21 60 343 17 11 63 12 266 162 26 17 4 7 3 347
208 191 191 174 146 154 122 119 93 123 148 175 158 135 158 89 115 57 33 12 27 2 17 324 3 15 33 11 341 348 347 321
226 203 210 156 129 123 124 99 88 53 75 72 50 53 51 14 78 55 41 22 26 347 348 322 341 29 21 349 330 343 332 335
356 59 41 26 0 69 62 64 59 57 50 51 66 38 24 29 50 63 44 31 28 359 328 345 31 26 1 324 343 353 340 343
106 45 65 55 11 11 29 75 81 70 74 72 75 59 34 16 34 17 18 31 11 359 349 343 26 2 337 331 354 341 334 326
89 113 114 188 172 159 286 40 93 115 105 123 113 113 48 46 46 35 33 21 358 343 336 322 12 353 341 346 347 341 329 330
69 67 99 133 109 114 72 52 35 51 51 78 72 60 52 35 29 359 328 295 359 25 338 342 4 344 351 347 344 331 332 328
78 85 100 100 94 96 88 81 87 112 84 61 63 68 69 116 167 227 259 263 42 29 311 335 11 347 329 337 348 343 313 310
85 90 99 101 96 102 110 83 32 35 26 22 19 16 334 248 231 230 175 346 360 342 337 26 338 338 319 29 341 311 313 309
82 91 92 98 100 101 81 57 46 36 35 32 337 298 280 290 311 301 282 296 220 255 84 273 333 340 307 13 343 307 314 333
72 74 77 82 80 84 70 52 38 26 1 266 260 294 331 328 325 334 16 241 264 197 198 14 353 317 321 4 317 319 323 326
66 57 50 51 43 46 45 48 48 29 19 20 8 16 321 313 311 282 348 299 278 261 129 81 296 315 303 291 308 304 340 312
52 49 50 47 41 39 37 32 24 18 6 349 315 283 242 283 309 317 318 278 273 105 129 143 246 254 285 302 293 323 302 342
67 62 60 49 25 42 312 319 319 290 274 256 291 335 338 333 313 299 294 332 69 118 199 230 285 283 270 283 299 315 317 327
77 66 46 32 10 0 5 9 360 345 342 320 319 308 311 291 293 350 330 315 333 170 217 284 249 252 263 271 300 297 289 303
97 114 116 259 281 341 5 307 303 303 322 327 310 328 329 327 348 326 302 322 300 259 246 244 258 267 254 283 290 267 262 316
98 82 51 18 329 33 20 334 292 284 305 17 348 322 304 294 295 301 288 285 285 295 316 324 303 286 303 278 293 293 282 305
52 40 53 318 318 297 339 349 12 11 352 348 331 312 304 290 276 275 276 295 334 326 315 309 309 315 280 323 294 297 283 296
27 349 2 322 333 350 18 12 349 0 332 321 303 314 1 307 346 340 345 334 337 324 326 314 300 289 314 308 299 275 268 281
9 325 355 325 13 16 16 16 337 325 310 303 327 347 246 336 350 332 322 314 321 342 346 337 328 5 351 327 314 360 340 329